Date String (YYYY-MM-DD hh:mm:ss) UTC,Instrument flags,Ambient pressure (hPa),Sample flow (lpm),Bypass flow (lpm),Sample temperature (°C),Ambient temperature (°C),ASC tube jacket temperature (°C),LED temperature (°C),Box temperature (°C),Sample RH (%),Span deviation,Mass concentration (μg/m³),Mass concentration (μg/m³),Mass concentration (μg/m³)
DateTimeUTC,F1_M11,P_M11,Q1_M11,Q2_M11,T1_M11,T2_M11,T3_M11,T4_M11,T5_M11,U1_M11,ZSPAN_M11,X0_M11,X2_M11,X1_M11
2023-02-05 01:00:00,,0823.5,5.04,0.00,22.0,20.3,00.0,31.0,23.6,10.0,0000.0,0005.80,0001.04,0000.54
2023-02-05 01:01:00,,0823.5,4.96,0.00,22.0,20.4,00.0,31.0,23.7,09.6,0000.0,0005.75,0001.03,0000.55
2023-02-05 01:02:00,,0823.6,5.04,0.00,22.0,20.4,00.0,31.0,23.7,09.5,0000.0,0005.68,0000.99,0000.54
2023-02-05 01:03:00,,0823.5,4.97,0.00,22.0,20.4,00.0,31.0,23.7,09.8,0000.0,0005.61,0001.00,0000.54
2023-02-05 01:04:00,,0823.6,5.02,0.00,22.0,20.4,00.0,31.0,23.7,09.8,0000.0,0005.51,0001.01,0000.53
2023-02-05 01:05:00,,0823.5,4.95,0.00,22.0,20.3,00.0,31.0,23.6,09.7,0000.0,0005.46,0000.98,0000.53
2023-02-05 01:06:00,,0823.4,5.03,0.00,22.0,20.3,00.0,31.0,23.7,09.9,0000.0,0005.46,0000.99,0000.53
2023-02-05 01:07:00,,0823.1,4.96,0.00,22.0,20.3,00.0,30.9,23.7,09.6,0000.0,0005.48,0001.01,0000.53
2023-02-05 01:08:00,,0823.4,5.05,0.00,21.9,20.2,00.0,30.9,23.6,09.3,0000.0,0005.05,0001.02,0000.54
2023-02-05 01:09:00,,0823.4,4.97,0.00,22.0,20.9,00.0,30.9,23.8,09.4,0000.0,0004.35,0001.03,0000.54
2023-02-05 01:10:00,,0823.4,5.04,0.00,22.1,21.9,00.0,30.8,24.1,09.7,0000.0,0002.80,0000.97,0000.54
2023-02-05 01:11:00,,0823.3,4.96,0.00,22.2,22.6,00.0,30.9,24.3,09.4,0000.0,0002.32,0000.94,0000.55
2023-02-05 01:12:00,,0823.2,5.05,0.00,22.3,22.3,00.0,31.0,24.4,09.2,0000.0,0002.23,0000.93,0000.54
2023-02-05 01:13:00,,0823.3,4.93,0.00,22.3,21.9,00.0,31.0,24.3,09.2,0000.0,0002.30,0000.95,0000.54
2023-02-05 01:14:00,,0823.5,5.05,0.00,22.3,21.5,00.0,31.0,24.2,09.4,0000.0,0002.38,0000.99,0000.55
2023-02-05 01:15:00,,0823.6,4.97,0.00,22.3,21.3,00.0,31.0,24.1,09.7,0000.0,0002.40,0000.99,0000.56
2023-02-05 01:16:00,,0823.4,4.98,0.00,22.3,21.2,00.0,31.1,24.0,09.8,0000.0,0002.62,0001.03,0000.56
2023-02-05 01:17:00,,0823.5,4.99,0.00,22.3,21.0,00.0,31.1,24.0,09.2,0000.0,0002.69,0001.04,0000.56
2023-02-05 01:18:00,,0823.6,4.96,0.00,22.2,20.9,00.0,31.1,23.9,09.2,0000.0,0002.73,0001.02,0000.56
2023-02-05 01:19:00,,0823.4,5.04,0.00,22.2,20.8,00.0,31.1,23.9,09.5,0000.0,0002.98,0001.00,0000.56
2023-02-05 01:20:00,,0823.3,4.97,0.00,22.2,20.6,00.0,31.1,23.8,09.4,0000.0,0002.42,0000.95,0000.56
2023-02-05 01:21:00,,0823.3,5.02,0.00,22.1,20.5,00.0,31.1,23.8,09.5,0000.0,0002.96,0000.95,0000.55
2023-02-05 01:22:00,,0823.1,5.00,0.00,22.1,20.4,00.0,31.1,23.8,09.5,0000.0,0009.69,0001.14,0000.56
2023-02-05 01:23:00,,0823.0,4.98,0.00,22.1,20.3,00.0,31.1,23.7,09.3,0000.0,0010.28,0001.17,0000.55
2023-02-05 01:24:00,,0823.1,5.03,0.00,22.0,20.2,00.0,31.0,23.6,09.1,0000.0,0010.25,0001.16,0000.55
2023-02-05 01:25:00,,0823.1,4.95,0.00,22.0,20.2,00.0,31.0,23.6,09.2,0000.0,0010.30,0001.14,0000.53
2023-02-05 01:26:00,,0823.2,5.04,0.00,22.0,20.1,00.0,31.0,23.5,09.1,0000.0,0010.40,0001.16,0000.53
2023-02-05 01:27:00,,0823.5,4.95,0.00,21.9,20.1,00.0,31.0,23.5,09.5,0000.0,0010.34,0001.17,0000.53
2023-02-05 01:28:00,,0823.6,5.05,0.00,21.9,20.1,00.0,31.0,23.5,09.7,0000.0,0010.33,0001.17,0000.53
2023-02-05 01:29:00,,0823.2,4.97,0.00,21.9,20.6,00.0,30.9,23.7,09.5,0000.0,0010.32,0001.18,0000.53
2023-02-05 01:30:00,,0823.3,5.06,0.00,22.0,21.7,00.0,30.9,24.0,09.1,0000.0,0010.18,0001.21,0000.52
2023-02-05 01:31:00,,0823.4,4.95,0.00,22.2,22.6,00.0,30.9,24.3,09.3,0000.0,0010.19,0001.25,0000.53
2023-02-05 01:32:00,,0823.6,5.04,0.00,22.3,22.5,00.0,31.0,24.4,09.3,0000.0,0009.82,0001.25,0000.53
2023-02-05 01:33:00,,0823.5,4.98,0.00,22.3,22.2,00.0,31.0,24.3,09.5,0000.0,0003.08,0001.10,0000.52
2023-02-05 01:34:00,,0823.3,4.97,0.00,22.3,21.8,00.0,31.1,24.2,09.6,0000.0,0002.40,0001.09,0000.52
2023-02-05 01:35:00,,0823.6,5.05,0.00,22.3,21.4,00.0,31.1,24.1,09.5,0000.0,0002.39,0001.09,0000.52
2023-02-05 01:36:00,,0823.7,4.97,0.00,22.3,21.2,00.0,31.1,24.0,09.6,0000.0,0002.22,0001.07,0000.53
2023-02-05 01:37:00,,0823.6,5.01,0.00,22.3,20.9,00.0,31.1,24.0,09.3,0000.0,0002.01,0001.04,0000.53
2023-02-05 01:38:00,,0823.6,4.98,0.00,22.2,20.8,00.0,31.1,23.9,09.4,0000.0,0002.02,0001.05,0000.52
2023-02-05 01:39:00,,0823.6,5.01,0.00,22.2,20.7,00.0,31.1,23.9,09.7,0000.0,0002.00,0001.05,0000.52
2023-02-05 01:40:00,,0823.7,4.98,0.00,22.2,20.6,00.0,31.1,23.8,09.6,0000.0,0001.99,0001.05,0000.53
2023-02-05 01:41:00,,0823.6,5.02,0.00,22.2,20.6,00.0,31.1,23.8,09.7,0000.0,0002.05,0001.03,0000.52
2023-02-05 01:42:00,,0823.6,4.97,0.00,22.1,20.4,00.0,31.1,23.7,09.2,0000.0,0001.95,0000.99,0000.52
2023-02-05 01:43:00,,0823.6,5.04,0.00,22.1,20.3,00.0,31.1,23.7,09.4,0000.0,0002.21,0001.04,0000.52
2023-02-05 01:44:00,,0823.6,4.95,0.00,22.0,20.3,00.0,31.1,23.6,09.2,0000.0,0002.27,0001.03,0000.52
2023-02-05 01:45:00,,0823.7,5.04,0.00,22.0,20.3,00.0,31.1,23.6,09.1,0000.0,0002.17,0001.00,0000.51
2023-02-05 01:46:00,,0823.7,4.96,0.00,22.0,20.2,00.0,31.0,23.6,09.3,0000.0,0002.16,0001.02,0000.51
2023-02-05 01:47:00,,0823.7,5.05,0.00,21.9,20.2,00.0,31.0,23.5,09.3,0000.0,0002.16,0001.02,0000.50
2023-02-05 01:48:00,,0823.7,4.96,0.00,21.9,20.2,00.0,31.0,23.5,09.2,0000.0,0002.20,0001.04,0000.50
2023-02-05 01:49:00,,0823.7,5.03,0.00,22.0,21.0,00.0,30.9,23.8,09.6,0000.0,0002.19,0001.01,0000.51
2023-02-05 01:50:00,,0823.7,4.97,0.00,22.1,22.2,00.0,30.9,24.1,09.4,0000.0,0002.20,0000.99,0000.50
2023-02-05 01:51:00,,0823.7,5.00,0.00,22.2,22.8,00.0,31.0,24.4,09.2,0000.0,0002.25,0001.01,0000.50
2023-02-05 01:52:00,,0823.7,5.03,0.00,22.3,22.5,00.0,31.0,24.4,09.1,0000.0,0002.23,0001.01,0000.50
2023-02-05 01:53:00,,0823.6,4.97,0.00,22.4,22.1,00.0,31.1,24.3,09.1,0000.0,0002.45,0001.03,0000.49
2023-02-05 01:54:00,,0823.7,5.05,0.00,22.4,21.8,00.0,31.1,24.3,09.0,0000.0,0002.68,0001.04,0000.49
2023-02-05 01:55:00,,0823.7,4.97,0.00,22.4,21.5,00.0,31.2,24.2,09.1,0000.0,0004.04,0001.00,0000.48
2023-02-05 01:56:00,,0823.6,5.01,0.00,22.3,21.2,00.0,31.2,24.1,09.3,0000.0,0004.02,0001.00,0000.48
2023-02-05 01:57:00,,0823.6,5.00,0.00,22.3,21.0,00.0,31.2,24.0,09.1,0000.0,0004.13,0001.02,0000.48
2023-02-05 01:58:00,,0823.6,5.01,0.00,22.3,20.8,00.0,31.2,24.0,09.1,0000.0,0004.22,0001.06,0000.48
2023-02-05 01:59:00,,0823.7,4.97,0.00,22.2,20.7,00.0,31.2,23.9,08.9,0000.0,0004.30,0001.06,0000.49
